Hourly Weather Rudoltowice

Today, 16 April, Friday

Time Temperature Precipitation Wind Pressure Humidity
00:00 +1°C° 0.2 mm 2 mps 741 mmHg 99%
01:00 +1°C° 0.2 mm 2 mps 741 mmHg 99%
02:00 +1°C° 0.2 mm 2 mps 741 mmHg 99%
03:00 +1°C° 0.2 mm 2 mps 741 mmHg 98%
04:00 +1°C° 0.2 mm 2 mps 741 mmHg 98%
05:00 +1°C° 0.2 mm 2 mps 741 mmHg 98%
06:00 +1°C° 0.2 mm 2 mps 741 mmHg 98%
07:00 +1°C° 0.2 mm 2 mps 741 mmHg 98%
08:00 0°C° 0.2 mm 3 mps 741 mmHg 98%
09:00 0°C° 0.2 mm 3 mps 741 mmHg 98%
10:00 0°C° 0.2 mm 3 mps 742 mmHg 98%
11:00 0°C° 0.2 mm 3 mps 742 mmHg 98%
12:00 +1°C° 0.2 mm 3 mps 742 mmHg 98%
13:00 +1°C° 0.2 mm 3 mps 742 mmHg 98%
14:00 +1°C° 0.2 mm 3 mps 742 mmHg 98%
15:00 +1°C° 0.2 mm 3 mps 742 mmHg 98%
16:00 +1°C° 0.2 mm 3 mps 742 mmHg 98%
17:00 +2°C° 0.3 mm 2 mps 742 mmHg 98%
18:00 +2°C° 0.3 mm 2 mps 742 mmHg 98%
19:00 +2°C° 0.3 mm 2 mps 742 mmHg 99%
20:00 +2°C° 0.4 mm 2 mps 742 mmHg 99%
21:00 +2°C° 0.4 mm 2 mps 742 mmHg 99%
22:00 +2°C° 0.4 mm 2 mps 742 mmHg 99%
23:00 +2°C° 0.3 mm 2 mps 742 mmHg 99%

Tomorrow, 17 April, Saturday

Time Temperature Precipitation Wind Pressure Humidity
00:00 +2°C° 0.3 mm 2 mps 742 mmHg 99%
01:00 +2°C° 0.3 mm 2 mps 742 mmHg 99%
02:00 +2°C° 0.2 mm 2 mps 741 mmHg 99%
03:00 +2°C° 0.2 mm 2 mps 741 mmHg 99%
04:00 +2°C° 0.2 mm 2 mps 741 mmHg 99%
05:00 +2°C° 0.2 mm 2 mps 741 mmHg 99%
06:00 +2°C° 0.2 mm 2 mps 741 mmHg 99%
07:00 +2°C° 0.2 mm 2 mps 742 mmHg 99%
08:00 +4°C° 0.1 mm 1 mps 742 mmHg 99%
09:00 +4°C° 0.1 mm 1 mps 742 mmHg 99%
10:00 +4°C° 0.1 mm 1 mps 742 mmHg 99%
11:00 +4°C° 0 mm 1 mps 742 mmHg 99%
12:00 +4°C° 0 mm 1 mps 742 mmHg 98%
13:00 +4°C° 0 mm 1 mps 742 mmHg 98%
14:00 +4°C° 0 mm 1 mps 742 mmHg 98%
15:00 +4°C° 0 mm 1 mps 742 mmHg 98%
16:00 +4°C° 0 mm 1 mps 742 mmHg 98%
17:00 +3°C° 0 mm 0 mps 742 mmHg 98%
18:00 +3°C° 0 mm 0 mps 742 mmHg 99%
19:00 +3°C° 0 mm 0 mps 742 mmHg 99%
20:00 +3°C° 0 mm 0 mps 742 mmHg 99%
21:00 +3°C° 0 mm 0 mps 742 mmHg 99%
22:00 +3°C° 0 mm 0 mps 742 mmHg 99%
23:00 +3°C° 0 mm 0 mps 742 mmHg 99%

Day after tomorrow, 18 April, Sunday

Time Temperature Precipitation Wind Pressure Humidity
00:00 +3°C° 0 mm 0 mps 742 mmHg 99%
01:00 +3°C° 0 mm 0 mps 741 mmHg 99%
02:00 +3°C° 0 mm 0 mps 741 mmHg 99%
03:00 +3°C° 0 mm 0 mps 741 mmHg 99%
04:00 +4°C° 0 mm 1 mps 741 mmHg 99%
05:00 +4°C° 0 mm 1 mps 741 mmHg 97%
06:00 +4°C° 0 mm 1 mps 741 mmHg 96%
07:00 +3°C° 0 mm 2 mps 741 mmHg 95%
08:00 +4°C° 0 mm 2 mps 741 mmHg 92%
09:00 +5°C° 0 mm 2 mps 741 mmHg 89%
10:00 +5°C° 0 mm 3 mps 741 mmHg 87%
11:00 +5°C° 0 mm 3 mps 741 mmHg 84%
12:00 +7°C° 0 mm 3 mps 741 mmHg 81%
13:00 +8°C° 0 mm 3 mps 740 mmHg 78%
14:00 +8°C° 0 mm 3 mps 740 mmHg 79%
15:00 +8°C° 0 mm 2 mps 740 mmHg 80%
16:00 +8°C° 0 mm 2 mps 740 mmHg 81%
17:00 +7°C° 0 mm 2 mps 740 mmHg 84%
18:00 +7°C° 0 mm 2 mps 740 mmHg 86%
19:00 +7°C° 0 mm 1 mps 740 mmHg 88%
20:00 +7°C° 0 mm 1 mps 740 mmHg 89%
21:00 +7°C° 0 mm 1 mps 740 mmHg 89%
22:00 +7°C° 0 mm 1 mps 740 mmHg 90%
23:00 +7°C° 0 mm 1 mps 740 mmHg 90%

19 April, Monday

Time Temperature Precipitation Wind Pressure Humidity
00:00 +6°C° 0 mm 1 mps 740 mmHg 90%
01:00 +6°C° 0 mm 1 mps 739 mmHg 90%
02:00 +6°C° 0 mm 1 mps 739 mmHg 90%
03:00 +6°C° 0 mm 1 mps 739 mmHg 91%
04:00 +6°C° 0 mm 1 mps 739 mmHg 91%
05:00 +5°C° 0 mm 2 mps 739 mmHg 90%
06:00 +6°C° 0 mm 2 mps 739 mmHg 88%
07:00 +7°C° 0 mm 2 mps 739 mmHg 87%
08:00 +8°C° 0 mm 2 mps 739 mmHg 82%
09:00 +9°C° 0 mm 3 mps 739 mmHg 76%
10:00 +10°C° 0 mm 4 mps 738 mmHg 71%
11:00 +10°C° 0.1 mm 4 mps 738 mmHg 69%
12:00 +11°C° 0.1 mm 4 mps 738 mmHg 68%
13:00 +10°C° 0.1 mm 5 mps 738 mmHg 66%
14:00 +11°C° 0.2 mm 4 mps 738 mmHg 70%
15:00 +10°C° 0.2 mm 4 mps 737 mmHg 74%
16:00 +10°C° 0.2 mm 3 mps 737 mmHg 77%
17:00 +9°C° 0.1 mm 3 mps 737 mmHg 80%
18:00 +8°C° 0.1 mm 2 mps 737 mmHg 84%
19:00 +9°C° 0.1 mm 1 mps 738 mmHg 87%
20:00 +8°C° 0.1 mm 2 mps 737 mmHg 88%
21:00 +8°C° 0.1 mm 2 mps 737 mmHg 89%
22:00 +8°C° 0.1 mm 2 mps 737 mmHg 91%
23:00 +7°C° 0 mm 2 mps 737 mmHg 91%

20 April, Tuesday

Time Temperature Precipitation Wind Pressure Humidity
00:00 +7°C° 0 mm 2 mps 737 mmHg 91%
01:00 +7°C° 0 mm 3 mps 738 mmHg 91%
02:00 +7°C° 0 mm 2 mps 737 mmHg 91%
03:00 +6°C° 0 mm 2 mps 737 mmHg 91%
04:00 +6°C° 0 mm 2 mps 737 mmHg 91%
05:00 +6°C° 0 mm 2 mps 738 mmHg 88%
06:00 +7°C° 0 mm 2 mps 738 mmHg 85%
07:00 +7°C° 0 mm 2 mps 738 mmHg 82%
08:00 +7°C° 0.1 mm 3 mps 738 mmHg 78%
09:00 +8°C° 0.1 mm 3 mps 738 mmHg 74%
10:00 +8°C° 0.1 mm 3 mps 738 mmHg 71%
11:00 +8°C° 0 mm 3 mps 738 mmHg 67%
12:00 +9°C° 0 mm 3 mps 738 mmHg 64%
13:00 +10°C° 0 mm 3 mps 738 mmHg 61%
14:00 +9°C° 0 mm 3 mps 738 mmHg 61%
15:00 +9°C° 0 mm 3 mps 737 mmHg 62%
16:00 +9°C° 0 mm 3 mps 737 mmHg 62%
17:00 +8°C° 0 mm 2 mps 737 mmHg 65%
18:00 +8°C° 0 mm 2 mps 738 mmHg 69%
19:00 +7°C° 0 mm 2 mps 738 mmHg 72%
20:00 +7°C° 0 mm 2 mps 738 mmHg 74%
21:00 +8°C° 0 mm 1 mps 738 mmHg 77%
22:00 +7°C° 0 mm 1 mps 738 mmHg 80%
23:00 +7°C° 0 mm 1 mps 738 mmHg 82%

21 April, Wednesday

Time Temperature Precipitation Wind Pressure Humidity
00:00 +7°C° 0 mm 1 mps 738 mmHg 84%
01:00 +6°C° 0 mm 1 mps 738 mmHg 86%
02:00 +6°C° 0 mm 1 mps 738 mmHg 86%
03:00 +6°C° 0 mm 1 mps 738 mmHg 86%
04:00 +6°C° 0 mm 1 mps 738 mmHg 86%
05:00 +7°C° 0.1 mm 1 mps 738 mmHg 84%
06:00 +6°C° 0.1 mm 2 mps 738 mmHg 82%
07:00 +7°C° 0.1 mm 2 mps 738 mmHg 80%
08:00 +8°C° 0.1 mm 2 mps 738 mmHg 75%
09:00 +9°C° 0.1 mm 2 mps 738 mmHg 70%
10:00 +10°C° 0.1 mm 2 mps 738 mmHg 65%
11:00 +10°C° 0.1 mm 2 mps 738 mmHg 60%
12:00 +12°C° 0.1 mm 2 mps 738 mmHg 56%
13:00 +12°C° 0.1 mm 3 mps 738 mmHg 51%
14:00 +12°C° 0 mm 3 mps 738 mmHg 52%
15:00 +11°C° 0 mm 3 mps 738 mmHg 54%
16:00 +11°C° 0 mm 3 mps 738 mmHg 55%
17:00 +10°C° 0 mm 2 mps 737 mmHg 59%
18:00 +9°C° 0 mm 2 mps 737 mmHg 63%
19:00 +8°C° 0 mm 2 mps 737 mmHg 67%
20:00 +8°C° 0 mm 2 mps 737 mmHg 69%
21:00 +7°C° 0 mm 2 mps 737 mmHg 71%
22:00 +6°C° 0 mm 2 mps 737 mmHg 74%
23:00 +6°C° 0 mm 2 mps 737 mmHg 74%
Show more